Location: Normandy Village
(37.8755°N, 122.2655°W)
Time: 15:04:32
(UTC+00:00)

Daily predictions for brighter satellites

Satellite Brightness Start Highest point End
(mag) Time Altitude Azimuth Time Altitude Azimuth Time Altitude Azimuth
SL-4 R/B 2.7 12:05:41 36° SE 12:05:41 36° SE 12:08:00 10° SE
Cosmos 1862 Rocket 4.4 12:06:39 36° NW 12:06:39 36° NW 12:09:50 10° N
Lacrosse 5 2.7 12:02:36 10° NNW 12:07:32 50° NE 12:12:26 10° ESE
Okean 1-7 3.8 12:04:17 10° S 12:08:32 52° E 12:12:49 10° NNE
PSLV R/B 3.8 12:06:09 10° SSE 12:10:17 90° ENE 12:14:25 10° NNW
Sakura Rocket 4.5 12:11:24 22° S 12:11:24 22° S 12:14:53 10° SE
Hubble Space Telescope 3.2 12:13:01 11° S 12:13:01 11° S 12:13:22 10° SSE
USA 215 3.9 12:05:35 10° NE 12:11:54 50° SE 12:17:19 14° SSW
CZ-2C R/B 3.6 12:07:13 10° NNE 12:11:58 43° E 12:16:49 10° S
Cosmos 2242 Rocket 3.6 12:12:58 55° W 12:13:16 56° W 12:17:41 10° N
Cosmos 1340 2.5 12:14:08 10° NNW 12:17:55 76° W 12:21:40 10° S
Cosmos 1666 3.7 12:14:22 10° N 12:18:01 47° E 12:21:41 10° SSE
Cosmos 1315 Rocket 3.3 12:19:04 42° WNW 12:19:04 42° WNW 12:22:37 10° N
TSX-5 3.8 12:19:02 39° S 12:19:56 57° ESE 12:23:02 10° NNE
ATLAS 3B R/B 4.2 12:19:13 16° NW 12:21:00 18° NW 12:25:20 10° N
Cosmos 2266 Rocket 4.2 12:16:52 10° S 12:22:55 71° E 12:28:55 10° NNE
ASTRO E2 3.7 12:25:47 29° SSW 12:26:09 30° S 12:29:40 10° SE
IDEFIX/ARIANE 42P 2.8 12:26:32 10° N 12:31:36 49° WNW 12:34:47 22° SW
MSX 3.7 12:26:44 10° N 12:32:29 78° WNW 12:38:12 10° SSW
CZ-4B R/B 4.3 12:29:46 10° NNE 12:33:20 54° E 12:36:55 10° S
Meteor 1-27 Rocket 4.2 12:31:24 26° SW 12:34:07 40° WNW 12:39:33 10° N
ATLAS CENTAUR R/B 4.4 12:32:45 10° N 12:35:30 16° NE 12:38:07 10° E
Cosmos 1680 Rocket 3.7 12:31:00 10° S 12:36:14 73° ESE 12:41:28 10° NNE
Cosmos 923 Rocket 4.0 12:32:33 10° SSW 12:37:51 81° WNW 12:43:12 10° NNE
Meteor 1-31 Rocket 3.1 12:34:13 10° NNE 12:38:06 67° E 12:41:56 10° S
COSMOS 2441 4.3 12:34:25 10° N 12:39:18 70° WNW 12:44:10 10° SSW
Cosmos 1908 Rocket 3.6 12:35:12 10° NNW 12:39:25 52° W 12:43:38 10° S
PSLV R/B 4.3 12:36:36 10° N 12:40:28 32° WNW 12:41:41 27° WSW
Cosmos 1656 4.4 12:35:44 10° S 12:41:16 55° ESE 12:46:49 10° NNE
Atlas Centaur 2 3.8 12:38:57 19° SW 12:41:18 22° SSW 12:46:54 10° SSE
SeaSat 1 2.6 12:38:54 10° NNE 12:43:41 52° WNW 12:47:14 18° SW
Shenzhou-11 Module 1.7 12:43:46 46° W 12:44:24 70° NNW 12:47:08 10° ENE
BREEZE-M DEB (TANK) 4.2 12:41:15 19° WNW 12:44:48 58° SW 13:02:56 10° SE
Okean 1 3.4 12:43:06 10° S 12:47:02 76° E 12:51:00 10° N
Cosmos 1553 Rocket 4.4 12:47:37 10° NNW 12:53:18 39° W 12:58:53 10° SSW
DELTA 2 R/B(2) 3.4 12:53:14 39° NNW 12:53:23 41° N 12:55:09 10° ENE
Centaur AC-119 4.4 12:50:48 14° SW 12:53:35 25° SSE 13:02:07 10° ESE
Cosmos 1346 Rocket 4.0 12:54:32 10° NW 12:57:46 23° W 13:00:59 10° SW
Unknown 4.4 12:55:16 10° NNW 12:57:53 32° NE 13:00:31 10° ESE
Cosmos 1975 3.9 12:55:11 10° N 12:59:09 49° E 13:03:05 10° SSE
Cosmos 1484 Rocket 3.6 13:00:50 10° NNE 13:04:29 51° E 13:08:05 10° S
Cosmos 1536 4.1 13:01:38 10° NW 13:04:36 20° W 13:07:34 10° SW
BREEZE-M DEB (TANK) 4.1 12:57:36 10° WNW 13:05:18 33° N 13:08:18 10° ENE
Okean 3 3.9 13:01:51 10° S 13:05:58 66° E 13:10:08 10° NNE
Okean O Rocket 3.4 13:02:19 10° NNE 13:06:28 36° E 13:10:33 10° SSE
Cosmos 2315 Rocket 4.0 13:02:10 10° N 13:08:24 87° W 13:14:39 10° S
Abrixas rocket 2.0 13:06:42 14° SW 13:09:12 84° SE 13:12:14 10° ENE
OAO 2 Rocket 3.4 13:05:27 15° W 13:09:29 63° S 13:14:21 10° E
OAO 3 Rocket 3.5 13:06:12 14° WSW 13:10:06 54° S 13:14:38 10° E
Meteor 1-19 Rocket 4.4 13:07:01 10° S 13:12:41 82° E 13:18:31 10° N
PAYLOAD A 4.5 13:10:12 10° N 13:14:25 33° WNW 13:18:35 10° SW
CZ-4B R/B 4.4 13:09:36 10° NNE 13:14:51 46° E 13:19:59 10° S
Helios 1A Rocket 3.4 13:13:25 10° NNE 13:17:29 65° ESE 13:21:34 10° S
Cosmos 1300 Rocket 4.2 13:13:37 10° N 13:17:57 60° E 13:22:17 10° SSE
SKYMED 2 3.9 13:17:29 10° SSE 13:21:48 72° ENE 13:26:08 10° N
Cosmos 1782 Rocket 4.3 13:18:40 10° NNW 13:22:31 31° W 13:26:24 10° SSW
H-2A R/B 4.2 13:20:51 10° NW 13:22:40 13° WNW 13:24:29 10° W
MOS 1-B 4.4 13:20:32 10° N 13:26:21 77° WNW 13:32:07 10° SSW
Cosmos 1697 Rocket 3.0 13:20:46 10° SSW 13:26:23 76° ESE 13:32:04 10° NNE
SJ-12 4.1 13:22:30 10° NNE 13:26:34 79° ESE 13:30:37 10° S
Cosmos 2227 Rocket 2.3 13:24:43 10° NNW 13:30:26 88° WSW 13:36:06 10° SSE
Meteor 2-4 Rocket 3.9 13:27:13 10° S 13:32:33 78° E 13:37:55 10° NNE
Cosmos 1743 3.2 13:29:53 10° NNW 13:33:30 38° W 13:37:06 10° SSW
Cosmos 2219 3.5 13:30:33 10° NW 13:35:55 44° WSW 13:41:12 10° S
Meteor 2-19 Rocket 4.5 13:29:57 10° SSW 13:36:05 75° W 13:42:13 10° N
Meteor 2-9 Rocket 4.1 13:31:26 10° N 13:36:48 89° W 13:42:06 10° S
BREEZE-M DEB (TANK) 2.9 13:32:12 10° SW 13:41:22 80° NW 13:44:22 10° NE
